Hourly Weather Smolyakovo

Today, 6 May, Thursday

Time Temperature Precipitation Wind Pressure Humidity
00:00 +10°C° 0.1 mm 4 mps 740 mmHg 84%
01:00 +10°C° 0.1 mm 5 mps 739 mmHg 85%
02:00 +10°C° 0.1 mm 6 mps 739 mmHg 87%
03:00 +9°C° 0 mm 7 mps 738 mmHg 85%
04:00 +9°C° 0 mm 7 mps 738 mmHg 83%
05:00 +7°C° 0 mm 8 mps 737 mmHg 82%
06:00 +7°C° 0.1 mm 8 mps 737 mmHg 81%
07:00 +7°C° 0.1 mm 8 mps 737 mmHg 81%
08:00 +9°C° 0.1 mm 8 mps 736 mmHg 81%
09:00 +7°C° 0.9 mm 8 mps 737 mmHg 84%
10:00 +7°C° 0.9 mm 8 mps 737 mmHg 87%
11:00 +6°C° 0.9 mm 8 mps 737 mmHg 90%
12:00 +6°C° 0.6 mm 7 mps 738 mmHg 87%
13:00 +7°C° 0.6 mm 6 mps 739 mmHg 84%
14:00 +7°C° 0.6 mm 5 mps 740 mmHg 80%
15:00 +8°C° 0.2 mm 6 mps 741 mmHg 75%
16:00 +8°C° 0.2 mm 6 mps 741 mmHg 69%
17:00 +9°C° 0.2 mm 7 mps 742 mmHg 64%
18:00 +7°C° 0 mm 6 mps 742 mmHg 67%
19:00 +6°C° 0 mm 5 mps 743 mmHg 69%
20:00 +5°C° 0 mm 4 mps 743 mmHg 72%
21:00 +4°C° 0 mm 4 mps 744 mmHg 73%
22:00 +4°C° 0 mm 4 mps 744 mmHg 74%
23:00 +3°C° 0 mm 4 mps 745 mmHg 75%

Tomorrow, 7 May, Friday

Time Temperature Precipitation Wind Pressure Humidity
00:00 +3°C° 0 mm 3 mps 745 mmHg 75%
01:00 +3°C° 0 mm 3 mps 745 mmHg 76%
02:00 +2°C° 0 mm 3 mps 745 mmHg 76%
03:00 +3°C° 0 mm 3 mps 744 mmHg 75%
04:00 +3°C° 0 mm 4 mps 744 mmHg 73%
05:00 +3°C° 0 mm 4 mps 744 mmHg 72%
06:00 +3°C° 0 mm 5 mps 744 mmHg 74%
07:00 +4°C° 0 mm 6 mps 744 mmHg 75%
08:00 +5°C° 0 mm 7 mps 744 mmHg 77%
09:00 +5°C° 0.7 mm 7 mps 744 mmHg 82%
10:00 +5°C° 0.7 mm 7 mps 743 mmHg 87%
11:00 +4°C° 0.7 mm 7 mps 743 mmHg 92%
12:00 +6°C° 0.1 mm 7 mps 743 mmHg 90%
13:00 +8°C° 0.1 mm 6 mps 742 mmHg 88%
14:00 +9°C° 0.1 mm 6 mps 742 mmHg 85%
15:00 +9°C° 0.4 mm 6 mps 742 mmHg 85%
16:00 +10°C° 0.4 mm 5 mps 741 mmHg 85%
17:00 +10°C° 0.4 mm 5 mps 741 mmHg 85%
18:00 +9°C° 0.4 mm 5 mps 741 mmHg 87%
19:00 +10°C° 0.4 mm 4 mps 741 mmHg 89%
20:00 +8°C° 0.4 mm 4 mps 741 mmHg 91%
21:00 +7°C° 0.5 mm 4 mps 742 mmHg 91%
22:00 +8°C° 0.5 mm 3 mps 742 mmHg 92%
23:00 +7°C° 0.5 mm 3 mps 742 mmHg 92%

Day after tomorrow, 8 May, Saturday

Time Temperature Precipitation Wind Pressure Humidity
00:00 +5°C° 0 mm 3 mps 743 mmHg 93%
01:00 +4°C° 0 mm 3 mps 744 mmHg 94%
02:00 +3°C° 0 mm 3 mps 744 mmHg 95%
03:00 +3°C° 0 mm 3 mps 745 mmHg 95%
04:00 +2°C° 0 mm 3 mps 745 mmHg 95%
05:00 +2°C° 0 mm 3 mps 746 mmHg 95%
06:00 +3°C° 0 mm 3 mps 746 mmHg 89%
07:00 +5°C° 0 mm 4 mps 747 mmHg 82%
08:00 +6°C° 0 mm 4 mps 748 mmHg 75%
09:00 +7°C° 0 mm 4 mps 748 mmHg 67%
10:00 +9°C° 0 mm 5 mps 748 mmHg 59%
11:00 +10°C° 0 mm 5 mps 748 mmHg 51%
12:00 +11°C° 0 mm 4 mps 748 mmHg 49%
13:00 +12°C° 0 mm 4 mps 748 mmHg 46%
14:00 +12°C° 0 mm 4 mps 748 mmHg 43%
15:00 +12°C° 0 mm 3 mps 748 mmHg 47%
16:00 +12°C° 0 mm 3 mps 748 mmHg 51%
17:00 +13°C° 0 mm 2 mps 748 mmHg 55%
18:00 +12°C° 0 mm 2 mps 748 mmHg 57%
19:00 +10°C° 0 mm 2 mps 748 mmHg 60%
20:00 +9°C° 0 mm 2 mps 748 mmHg 63%
21:00 +9°C° 0.3 mm 2 mps 748 mmHg 70%
22:00 +8°C° 0.3 mm 2 mps 748 mmHg 77%
23:00 +8°C° 0.3 mm 2 mps 748 mmHg 84%

9 May, Sunday

Time Temperature Precipitation Wind Pressure Humidity
00:00 +8°C° 1.2 mm 3 mps 747 mmHg 87%
01:00 +7°C° 1.2 mm 4 mps 747 mmHg 90%
02:00 +7°C° 1.2 mm 5 mps 746 mmHg 94%

10 May, Monday

Time Temperature Precipitation Wind Pressure Humidity

11 May, Tuesday

Time Temperature Precipitation Wind Pressure Humidity
Show more

We Need Your Consent

Meteoprog and our Service Providers may store and access personal data such as cookies, device identifiers or other similar technologies on your device and process such data to personalise content and ads, as well as provide social media features and to analyse the traffic.

  • Store and/or access information on your device

    Cookies, device identifiers or other information can be stored or accessed on your device for the purposes indicated above.

  • Personalised ads and content, ad and content measurement, audience insights, and products development

    Ads and content can be personalised based on a profile. More data can be added to better personalise ads and content. Ad and content performance can be measured. Insights about the audience who saw the ads and content can be derived. Such data can be used to develop or improve user’s experience, systems and software.

By clicking ‘I Agree’ you will allow the use of indicated cookies, device identifiers, web beacons or other similar technologies. Your settings can be changed in the browser on your device.

For certain purposes, legitimate interests may be relied on, rather than consent. You can read more about this in our Privacy and Cookie Policy.